Terminal Aerodrome Forecast
Issued by NWS

Home | Current Version | Previous Version | Text Only | Print | Product List | Glossary On
Versions: 1 2 3 4 5 6 7 8 9 10 11 12 13 14 15 16 17 18 19 20
000
FTUS45 KRIW 252300
TAFCOD
TAF
KCOD 252320Z 2600/2624 14010KT P6SM BKN200
     FM260200 20007KT P6SM FEW120 SCT250
     FM260400 23011KT P6SM FEW120 SCT250 WS020/25045KT
     FM261200 24011G21KT P6SM SCT100 BKN250 WS020/25050KT
     FM261700 25015G25KT P6SM SCT100 BKN250
      AMD LTD TO CLD VIS AND WIND=

USA.gov is the U.S. government's official web portal to all federal, state and local government web resources and services.